CAPE
938 1224 1147 1237 1377 1482 1447 1518 1442 1336 1290 1257 1197 1100 1138 1193 1060 1078 1571 1660 1867 2120 2424 2518 2739 2776 2658 3095 3042 3226 3762 3615 3556 3719 3844 3877 3818 3734 3477 4121 3937 3612 3693 3545 3194 3435 3486 3335 3239 3231 3265 2863 2600 2477 2522 3234 3618 3448 3254 3118 2864 2834 2705 3056 3244 3370 3769 3564 3103 3130 3148 3438 3190 4044 3547 3369 3546 3955 3981 3924 4442 4004 4351 4657 4299
865 1050 1160 1199 1247 1297 1254 1272 1334 1270 1170 1197 1216 1099 1084 1152 1217 1270 1286 1496 1739 1657 2066 2088 2496 2607 2527 3031 3346 3445 3908 3955 3531 3503 3691 3726 3756 3475 3702 4016 4008 3781 3702 3736 3658 3552 3674 3718 3593 3593 3902 3371 3012 2648 2228 2340 2894 2798 3442 3018 3065 3267 2850 3024 3473 3576 3563 3858 4192 3764 3681 3745 3394 4211 4092 3823 3703 3917 3979 3891 3042 3168 4007 4546 4074
692 1078 1141 1247 1255 1188 1194 1283 1256 1239 1118 1107 1042 948 986 1012 1065 1122 912 995 1534 1520 1852 1764 2413 2796 2718 3015 3669 3603 4000 3873 3596 3560 3613 3742 3754 3397 3153 3588 3725 3575 3727 3751 3498 3626 3617 3747 3476 3500 3676 3602 3637 2882 2710 2910 2719 2976 3263 3378 3400 3141 3436 3181 3443 3627 3660 3783 3986 3483 3602 4126 4017 3927 4071 3871 4073 4481 4596 3683 3111 3054 3777 4428 4009
669 1038 1076 1116 1156 1243 1321 1235 1061 1036 967 987 983 946 872 872 984 898 915 894 1268 1593 1686 1835 2466 2865 2779 3155 3558 3536 3823 3654 3688 3654 3738 3736 3660 3784 3675 3623 3524 3384 3370 3287 3153 3499 3427 3578 3326 3218 3422 3651 3725 3654 3301 3121 3426 3796 3744 4124 3973 3653 3914 3994 3738 3659 3735 3771 3949 3976 3826 4028 4020 4098 4061 4060 4209 4293 4123 3838 3712 3402 3332 3601 3822
642 869 906 912 972 1140 1189 1113 1070 992 901 892 925 897 885 820 824 761 797 784 1003 1504 1913 2043 2389 2722 2434 2722 3170 3476 3515 3570 3705 3396 3576 3592 3638 3554 3588 3771 3673 3614 3399 3356 3310 3448 3382 3205 3052 3384 3706 3506 3558 3562 3395 3726 3581 3406 3477 3861 3981 3777 4015 3990 4124 4040 3884 3938 4001 4399 4556 4433 4489 4400 4247 3887 4030 4387 4755 4529 3503 3579 3849 3456 3350
760 662 775 826 1007 1100 1232 1107 1048 1031 953 905 885 884 897 875 806 756 706 786 950 1189 1794 1885 2118 2464 2466 2503 2860 3346 3449 3571 3712 3564 3364 3472 3577 3475 3519 3705 3546 3679 3572 3379 3367 3309 3196 3388 3261 3387 3387 3385 3203 3317 3674 3876 3924 3610 3644 3848 3863 3962 4213 4277 4246 4262 4141 4178 4274 4212 4376 4042 4040 4392 4433 4143 3998 3921 4014 4217 4259 4359 4228 3723 3224
714 757 711 674 1097 1128 1244 1217 1190 1059 1092 979 911 891 850 866 842 776 731 696 770 888 1162 1638 2046 2093 2465 2478 2463 2805 3216 3262 3624 3739 3504 3464 3515 3564 3147 3342 3405 3453 3526 3309 3185 3196 3202 3180 3373 3460 3474 3515 3318 3268 3675 3955 3749 3817 4056 4095 4144 4178 4069 4139 4339 4218 4248 4204 4133 4219 4203 4197 4263 4033 4439 4510 4197 4242 3916 3808 4060 4479 4569 4443 4208
686 783 806 757 1222 1366 1295 1338 1241 1243 1208 1253 1140 971 869 842 920 885 848 740 634 626 772 1169 1720 1755 2063 2167 2380 2516 3043 3124 3456 3682 3574 3365 3323 3417 3246 3069 2989 3158 3166 3287 3128 3031 3159 3159 3042 3223 3396 3552 3504 3453 3504 3596 3860 3829 3866 4071 4131 4091 3787 3765 4066 3985 4052 3954 3989 3657 3656 4087 4231 4342 4605 4573 4723 4917 4373 3726 3779 4036 4128 4346 4373
948 812 722 952 1479 1711 1606 1478 1406 1422 1383 1495 1354 1196 1047 982 954 975 1041 903 634 536 565 656 1167 1530 1677 2054 2143 2300 2455 2723 2865 3176 3433 3411 3282 3100 3182 3130 2990 2964 3063 2872 2912 2984 2965 2991 3068 2975 3258 3432 3173 3161 3183 3362 3460 3530 3820 4153 4114 3971 3976 3799 3987 4083 4051 4003 3900 4073 4166 4128 4108 4420 4231 4376 4318 4003 4155 4011 4012 4174 4149 3826 4135
970 884 842 1372 1777 1817 1908 1680 1587 1669 1570 1590 1603 1383 1237 1158 824 1011 1010 1011 906 834 702 650 707 1178 1550 1987 2071 2035 2150 2365 2503 2156 2535 3076 3263 2755 2965 3123 2989 2800 3042 3008 2748 2904 2852 2845 2670 3093 3071 3115 2840 2471 2354 2395 2508 2811 3312 4148 4097 3982 3956 3982 4068 4119 4119 3857 3679 3627 3554 3295 3079 3618 4147 3927 4057 4475 4311 4496 4481 4400 4349 4118 4407
1189 902 928 1454 1783 1897 1980 1824 1833 1886 1744 1666 1667 1561 1369 1267 1170 1184 983 877 1062 1264 1152 904 729 647 848 1190 1595 1693 1806 1885 1649 1512 1567 1801 2422 2937 2837 3191 3181 3037 2875 3140 2921 2570 2715 2957 3002 3201 3344 2734 2595 2220 2214 2146 2155 2145 2146 2626 3484 3861 3941 3991 3969 3965 3991 3740 3583 3726 3508 3586 3461 3221 3651 3444 3595 3864 4045 4112 4124 4204 4208 3976 3798
1051 1173 1484 1831 2013 1995 1798 1954 1965 1952 1886 1842 1756 1735 1487 1405 1368 1385 1285 918 1300 1129 1104 889 1043 719 744 799 896 1182 1461 1246 1084 1029 1035 1132 1422 2227 2473 2444 2547 2753 2572 2445 2697 2702 2694 2810 2960 2815 3210 3507 3480 3404 2550 2261 2212 2202 2216 2235 2254 2422 2726 3457 3862 3998 4130 3892 3793 3588 3374 3454 3802 3960 3596 3217 3970 4048 4464 4371 4254 4168 4010 3819 3828
1559 1492 1583 1574 1873 1984 2060 2129 2132 2039 2074 1976 2002 2036 1821 1673 1575 1496 1168 1001 1046 1078 1113 1127 1107 1061 988 893 750 674 999 894 695 611 644 752 886 1219 1699 2083 2053 2224 2296 2437 2451 2776 2978 3047 2878 2934 2614 3133 3316 3416 3994 3752 2634 2254 2260 2286 2303 2350 2409 2434 2402 3339 3545 4106 3892 3630 3819 3977 4072 4064 3804 4071 4331 4108 4124 4170 4432 4312 3971 3864 3950
2168 1752 1636 1776 1820 2041 2242 2153 2156 2099 2214 2176 2099 2007 1857 1877 1582 1433 1165 1152 1094 1135 1226 1243 1273 1269 1260 1228 1138 1027 919 828 145 0 0 0 258 782 1501 1566 1999 1951 2150 2300 2306 2590 2948 3002 3202 3187 3097 3076 3365 3449 3620 3953 4259 3649 2822 2393 2529 2482 2314 2392 2428 2432 2437 2946 3661 3983 4222 4338 4202 4145 4188 4483 4321 4047 4189 4017 4100 4020 4036 4011 3912
1282 2161 1996 1888 1825 1970 2119 2217 2253 2323 2376 2346 2254 2112 1989 1963 1733 1494 1420 1378 1492 1485 1297 1327 1374 1386 1390 1410 1396 1356 1303 1174 1012 827 386 0 0 22 1145 1247 1383 1833 2095 2274 2601 2507 2907 2900 2975 3097 3323 3477 3454 3510 3575 3725 4022 4046 4013 3792 3489 3425 3520 2975 2366 2218 2306 2413 2919 3484 3928 4181 4462 4522 4378 4475 4516 4378 4125 4112 3994 3990 3880 3611 3272
1263 1344 1599 2194 1876 1958 1962 2180 2255 2336 2369 2305 2256 2214 2199 2236 2148 1827 1627 1238 1305 1345 1407 1433 1462 1507 1527 1540 1536 1537 1533 1484 1399 1270 1081 845 496 92 1026 1463 1388 1510 1970 2384 2539 2837 2798 2878 2990 2985 3016 3426 3395 2725 2840 3458 3704 3856 3837 3808 3676 3571 3477 3367 3042 2615 2724 2859 2990 2988 2974 3022 3021 3914 4145 3803 4220 4458 4164 3617 3394 3003 3159 3321 3253
1432 1357 1361 1356 1736 2084 1796 1880 2192 2171 2216 2223 2245 2202 2258 2359 2260 2107 1750 1451 1490 1508 1548 1576 1588 1611 1641 1653 1677 1684 1688 1672 1635 1590 1502 1363 1170 915 1087 1555 1767 1780 1880 2471 2688 2642 2676 2816 3046 2921 2976 3340 3210 2612 2229 2156 3116 3344 3536 3525 3480 3380 3290 3348 2819 2478 2205 2023 2165 2241 2262 2208 2160 2061 1965 1899 2152 2758 3136 2890 2705 2996 3405 3305 3250
1397 1504 1407 1438 1307 1513 2155 2370 2272 2249 2222 2210 2252 2098 2113 2170 2127 2092 1782 1660 1689 1692 1728 1776 1816 1854 1902 1936 1948 1944 1926 1879 1815 1742 1671 1626 1518 1364 1294 1576 1848 2060 2126 2309 2440 2498 2551 2387 2821 3066 2930 3028 2847 2446 2100 1860 2668 2979 3266 3322 3380 3293 3371 3152 2794 2545 2069 1944 1876 1827 1765 1730 1732 1746 1742 1711 1734 1742 2326 2672 2965 3001 3083 3324 3293
1366 1527 1626 1529 1494 1539 1565 2357 2653 2241 2297 2251 2027 2115 2100 2184 1748 1794 1801 1814 1854 1938 1951 2015 2095 2185 2241 2282 2283 2277 2268 2268 2204 2122 2000 1869 1739 1599 1422 1521 1714 1984 2137 2202 2339 2474 2714 2537 2390 2557 2825 2832 2479 2263 2010 1803 2528 2872 3107 3215 3208 3206 3080 3055 3079 3064 2841 2190 1974 1791 1731 1615 1635 1647 1695 1805 1932 1945 1920 2194 2729 2995 3135 3070 3207
1230 1399 1581 1634 1642 1625 1644 1720 2622 2834 2571 2553 2407 2367 2448 2305 2269 2005 2025 2024 2024 2050 2095 2134 2189 2285 2382 2453 2476 2531 2544 2575 2561 2500 2354 2212 2019 1811 1566 1374 1560 1783 2018 2005 2305 2630 2565 2891 2668 1783 1786 1940 2086 2033 1876 1726 2248 2811 2974 3018 3068 3160 3092 3014 3103 3099 3334 3384 3161 2992 2991 2966 2992 2675 2571 2509 2031 2170 2310 2265 2572 2952 3233 3420 3329
1055 1196 1345 1592 1717 1771 1745 1779 1899 2607 3105 2884 2754 2663 2684 2686 2437 2459 2113 2191 2246 2286 2317 2335 2343 2371 2382 2424 2526 2609 2639 2677 2707 2698 2635 2534 2330 2085 1805 1515 1442 1632 1916 2008 1972 2027 2477 2545 2393 2218 1694 1558 1582 1649 1635 1603 1560 2353 2862 3019 3060 3009 2907 3010 2857 2876 3080 3223 3211 3050 3039 3191 3105 3051 3078 3153 2982 2330 2295 2442 2426 2780 3037 3171 3053
855 1058 1096 1174 1577 1786 1843 1855 1896 2064 2440 3117 3253 3227 3153 2947 2865 2956 2778 2796 2757 2699 2690 2414 2394 2397 2392 2320 2505 2619 2675 2721 2734 2756 2747 2713 2628 2402 2106 1768 1492 1546 1713 1942 1879 1780 1835 2182 2589 2290 1867 1611 1459 1407 1433 1434 1475 1449 2423 2340 2405 2226 2176 2624 2733 2900 3108 2979 2891 2853 2850 2893 2904 2939 2814 2913 3083 3049 2787 2414 2510 2441 2809 2994 3079
679 732 835 837 1166 1708 1828 1857 1979 1978 2107 2160 3104 3193 3437 3303 3425 3378 3398 3195 3140 3066 3084 2911 2632 2441 2446 2453 2451 2573 2638 2708 2740 2781 2807 2814 2767 2676 2498 2208 1825 1570 1528 1746 1843 1721 1843 2030 2220 1951 1697 1558 1441 1368 1325 1323 1334 1387 1399 1534 1727 1785 1686 1921 2228 2469 2755 2771 2722 2914 2944 3110 3126 3114 3089 3241 3209 3412 3377 3294 2992 2653 2753 2927 3315
507 537 685 736 842 1343 1719 1823 1852 1918 1904 2038 2174 2507 2984 2868 3304 3594 3460 3384 3024 3146 3085 3085 2882 2725 2758 2535 2517 2490 2534 2598 2646 2704 2756 2808 2831 2821 2720 2589 2315 1893 1544 1392 1653 1750 1831 2084 2242 1670 1442 1339 1285 1241 1198 1195 1182 1211 1252 1296 1338 1379 1398 1435 1857 2252 2496 2566 2668 2578 2697 2942 3093 3167 3243 3450 3453 3531 3890 3535 3523 3455 3350 3368 3516
321 356 496 673 611 901 1298 1622 1842 1834 1772 1646 1764 2121 2484 2851 3142 3531 3617 3426 3417 3318 3246 3224 3306 3084 2714 2646 2599 2874 2533 2464 2511 2562 2612 2662 2757 2826 2857 2770 2580 2368 2030 1710 1411 1508 1637 1726 1631 1490 1292 1162 1099 1057 1040 1042 1059 1076 1090 1104 1145 1188 1224 1405 1820 2169 2420 2410 2424 2506 2697 2948 3289 3382 3490 3846 3912 3724 3749 4005 3764 3676 3630 3762 3616
230 275 311 442 505 494 740 994 1079 1126 953 980 1408 1700 1902 2247 2422 3327 3475 3460 3420 3384 3407 3313 3263 3274 3194 3104 2816 2874 2760 3000 2929 2860 2631 2630 2677 2764 2848 2858 2783 2650 2452 2205 1902 1624 1333 1262 1283 1225 1142 1084 1008 989 1025 1045 1018 1005 993 995 1043 1104 1178 1282 1744 2056 2366 2481 2713 2807 3085 3256 3325 3537 3832 3970 3915 3880 3669 3490 3476 3548 3603 3222 3152
27 183 226 297 347 342 409 328 285 376 539 717 910 1426 1730 1978 2363 2691 3063 3300 3611 3530 3404 3333 3271 3188 3205 2940 2878 2904 2885 2822 2992 3036 2856 2672 2662 2726 2818 2893 2874 2796 2677 2540 2375 2140 1786 1530 1257 1128 1057 1052 1066 1088 1100 1100 1078 1066 1093 1128 1157 1210 1273 1332 1730 2159 2358 2653 2840 3062 3217 3357 3483 3713 4049 3901 3664 3589 3453 3258 2865 3204 3169 3201 3188
0 0 109 222 299 271 283 232 131 3 255 546 657 796 1146 1651 2097 2559 2990 3428 3485 3550 3570 3347 3158 3067 3154 3019 3006 3097 3048 3010 3230 3241 3017 2740 2646 2622 2636 2738 2828 2822 2763 2684 2559 2464 2272 2000 1674 1401 1255 1180 1154 1154 1160 1147 1134 1153 1179 1204 1243 1282 1342 1418 1520 2052 2615 2892 3068 3211 3367 3527 3645 3658 3601 3499 3512 3501 3382 2789 2897 2850 2865 2789 2865
0 0 0 26 220 264 286 376 312 158 4 304 466 573 916 1174 1427 1907 2538 2917 3407 3452 3209 3437 3157 3117 3186 3452 3545 3409 3406 3476 3470 2917 2774 2648 2550 2518 2467 2484 2558 2659 2699 2688 2623 2529 2450 2338 2152 1845 1524 1328 1277 1352 1410 1530 1650 1630 1577 1298 1336 1367 1394 1490 1648 1950 2301 2652 2746 3062 3354 3556 3578 3444 3256 3302 3237 2849 2600 3145 3231 2898 3051 2575 2556
1 0 0 0 60 182 252 270 328 372 247 172 207 327 389 676 1216 1506 1838 2160 2589 2971 3016 3122 3446 3627 3516 3461 3533 3652 3774 3753 3100 2829 2673 2536 2483 2414 2379 2372 2380 2376 2430 2460 2355 2300 2280 2223 2215 2134 1989 1743 1569 1654 1727 1865 1964 2028 2069 1698 1602 1726 1770 1818 1978 2209 2392 2550 2882 3007 3119 3175 3358 3440 3199 2912 3118 2779 2794 2653 3035 3032 2866 2396 2328
1 1 1 3 2 106 191 230 177 250 240 129 8 6 277 233 766 1451 1800 1905 2010 2162 2436 2695 2894 2969 3064 3746 3868 3208 2978 3003 2917 2782 2681 2573 2485 2402 2312 2277 2270 2246 2344 2364 2271 2176 2113 2119 2164 2163 2121 2030 1883 1652 1830 2011 2076 2161 2256 2322 2072 1858 1593 1845 2105 2196 2241 2364 2531 2766 2925 3044 3173 3262 3047 2727 2625 2641 2933 2645 2314 2778 2834 2574 2236
1 1 1 2 5 4 4 5 55 148 123 4 41 40 89 307 210 854 1824 2148 2248 2420 2578 2733 2806 2838 2909 2984 3220 3661 3121 2948 2876 2785 2720 2629 2543 2481 2452 2448 2467 2465 2466 2450 2373 2279 2204 2160 2147 2161 2136 2106 2032 1907 1883 2108 2290 2314 2344 2382 2452 2296 1982 1957 2041 2268 2343 2405 2548 2637 2808 2946 3089 3073 2802 2462 2441 2621 2844 2914 2299 2269 2290 2210 2125
2 2 1 2 4 7 8 6 4 4 4 4 4 5 5 44 299 98 459 1850 2400 2681 2860 2981 3037 3073 3139 3120 3060 3025 3018 2978 2982 2933 2861 2791 2711 2648 2616 2626 2629 2660 2616 2626 2582 2505 2365 2274 2223 2218 2215 2184 2114 2028 1927 2050 2291 2433 2475 2501 2535 2594 2420 2286 1732 2316 2352 2510 2589 2672 2679 2768 2806 2859 2714 2576 2343 2646 2460 2730 2401 2305 2385 2261 2026
4 2 2 2 5 5 4 5 6 4 5 5 5 6 5 6 4 6 3 446 907 2146 2726 2955 3029 3062 3138 3174 3143 3068 3023 3009 3006 2954 2909 2852 2802 2763 2759 2767 2749 2721 2701 2704 2705 2673 2598 2483 2388 2357 2343 2315 2265 2190 2095 2156 2341 2493 2628 2685 2754 2839 2897 2907 2712 2340 2194 2186 2222 2333 2360 2382 2322 2410 2301 2319 2416 2432 2686 2644 2500 2358 2460 2493 2439
3 5 7 5 2 2 2 2 2 4 4 6 6 6 5 6 7 5 6 6 583 939 1350 2156 2673 2885 3019 3114 3119 3102 3068 3034 3001 2979 2955 2913 2877 2849 2817 2754 2701 2672 2626 2601 2568 2609 2643 2598 2605 2570 2523 2495 2461 2339 2268 2217 2485 2517 2642 2832 2941 2971 3170 3140 2880 2692 2365 2250 2071 1976 1943 2065 2092 2062 2172 2466 2472 2738 2662 2459 2256 2332 2515 2557 2626
4 4 3 2 1 1 1 2 3 4 6 7 7 6 8 10 8 8 6 8 170 468 874 1402 1846 2190 2607 2761 2916 3037 3099 3110 3077 3063 3004 2960 2973 2927 2855 2812 2718 2598 2562 2651 2715 2762 2756 2788 2812 2810 2749 2670 2615 2512 2398 2286 2580 2695 2683 2636 2622 2810 2876 2990 2972 2741 2516 2238 1970 1985 1752 1936 1932 2157 2391 2336 2493 2489 2372 2229 2223 2348 2478 2582 2602
4 4 5 4 2 1 1 2 4 7 2 3 5 7 9 10 11 9 9 12 15 124 368 599 932 1378 1760 2101 2289 2539 2714 2876 3016 3094 3099 3103 3064 3021 2946 2877 2800 2750 2723 2750 2804 2775 2770 2811 2864 2888 2888 2887 2820 2750 2624 2561 2485 2660 2549 2559 2704 2757 2742 2851 2939 2795 2650 2419 2226 2040 1968 1804 2105 2109 1994 2156 2053 2182 2375 2312 2185 2259 2454 2522 2556
5 5 4 4 2 1 2 3 3 2 5 6 12 10 9 7 8 9 10 10 11 33 237 562 551 778 1248 1637 1900 2085 2257 2441 2618 2825 2970 3082 3119 3101 3009 2920 2888 2816 2840 2853 2921 2922 2935 2960 2978 3012 3027 3007 2960 2883 2800 2727 2661 2525 2666 2711 2775 2864 2334 2363 2153 2764 2790 2635 2462 2336 1982 1998 1895 2098 1880 1855 1952 2119 2085 2144 2126 2129 2252 2349 2283
6 3 3 1 2 3 3 3 4 5 4 3 3 5 7 6 6 8 10 9 10 10 21 313 701 832 936 1218 1761 1648 1879 2075 2125 2241 2453 2649 2862 3001 3079 3099 3095 3069 3037 2963 2883 2851 2850 2840 2926 2987 3053 3093 3096 3048 2993 2919 2818 2735 2641 2563 2599 2560 2413 2321 2546 2629 2189 2210 2169 2084 2153 2035 2034 2019 1931 2003 1852 1959 2038 2093 2053 2047 2103 2007 1992
6 4 2 2 4 3 2 3 5 5 4 3 2 3 5 6 4 5 6 8 8 9 8 8 64 398 712 883 1179 1452 1437 1652 1845 1841 1862 2020 2238 2384 2635 2810 2964 3036 3053 3062 3009 3068 3096 3070 3042 3040 3078 3140 3148 3140 3119 3067 3002 2868 2728 2632 2427 2607 2698 2740 2631 2536 2322 2141 2107 2103 2258 2098 2084 2319 2393 1990 1908 1938 2000 2195 2071 2081 2001 1905 2071
5 3 5 1 2 3 5 4 2 1 1 2 2 4 4 7 7 7 7 6 6 7 7 5 5 13 220 348 548 834 1181 1231 1330 1541 1675 1754 1873 1947 2018 2134 2286 2496 2719 2879 2956 3002 3090 3134 3125 3084 3052 3031 3045 3100 3161 3133 3081 3061 2970 2863 2728 2457 2670 2864 2766 2508 2395 2309 2130 2054 2036 2035 1983 2031 2045 1968 1799 1845 1965 2023 2154 2137 2081 2054 2117
5 3 3 2 2 4 4 3 2 3 2 2 2 3 5 6 6 7 7 8 7 7 6 6 7 8 8 119 139 360 689 939 963 1064 1241 1395 1425 1424 1502 1563 1725 1893 2098 2297 2474 2706 2888 2943 2980 2991 2952 2897 2782 2757 2858 3007 3155 2985 2828 2803 2733 2785 2519 2634 2726 2547 2406 2128 2107 2036 2215 1942 1901 1834 1789 1768 1937 1806 1884 2072 2128 2023 1956 2101 2034
6 5 3 3 2 2 2 2 2 2 2 2 3 4 4 4 6 7 6 6 5 5 6 5 6 8 12 13 48 109 175 582 702 877 1094 1124 1219 1297 1482 1512 1428 1449 1567 1752 1855 1998 2274 2535 2689 2700 2712 2636 2538 2381 2334 2571 2751 2904 2902 2774 2663 2562 2652 2574 2437 2317 2143 2021 2016 1974 1899 1820 1780 1786 1796 1792 1807 1802 1985 2061 1975 1855 1862 2146 2009
4 3 2 1 2 2 2 1 2 2 2 2 4 3 5 5 4 4 6 5 6 6 5 5 5 4 4 2 2 55 101 210 547 806 961 949 1050 1139 1285 1256 1452 1622 1465 1336 1374 1562 1745 1903 2089 2292 2417 2425 2351 2275 2374 2500 2561 2516 2427 2091 1874 1632 1833 2334 2479 2410 2343 2175 2151 2151 2040 2036 1986 2007 2081 2066 1955 1931 2032 1962 1831 1760 1893 2123 2080
1 3 2 1 1 1 1 2 1 1 2 3 2 2 5 3 2 2 4 5 6 6 5 5 4 4 3 2 1 2 70 132 305 410 558 748 929 1106 1174 1354 1489 1598 1409 1423 1574 1731 1799 1772 1815 1959 2109 2109 2095 2148 2346 2400 2354 2180 2063 1872 1679 1583 1621 1822 2172 2360 2350 2210 2363 2335 2266 2266 2307 2340 2284 2123 2022 2022 1968 1816 1787 1763 1868 2007 1990
3 4 3 2 2 2 2 1 3 1 2 2 2 2 4 4 2 3 2 4 6 6 4 4 3 4 3 3 113 150 88 126 234 293 386 491 614 731 825 895 972 1075 1155 1281 1467 1629 1700 1703 1751 1898 2078 2230 2279 2301 2351 2339 2202 2456 2346 2278 2132 2082 2042 1959 2077 2243 2201 2280 2177 2384 2433 2496 2584 2493 2269 2046 1972 1952 1824 1787 1808 1798 1876 1926 1876
4 5 4 3 1 2 2 2 2 2 2 2 2 3 3 4 4 4 3 4 4 6 5 4 4 4 31 175 224 236 263 256 286 348 433 526 605 690 745 828 910 1011 1109 1249 1398 1501 1519 1550 1600 1660 1743 1841 1962 2080 2165 2224 2160 2111 2107 2123 2268 2159 1850 1928 2156 2226 2200 2037 2214 2462 2506 2614 2639 2537 2298 2077 1826 1738 1739 1919 2091 2064 1999 1972 1844
5 5 4 4 2 2 1 1 2 2 2 2 3 3 3 3 3 3 2 2 1 2 3 3 3 2 28 216 307 338 370 378 392 441 512 592 638 659 719 793 892 992 1113 1233 1323 1434 1480 1524 1588 1698 1798 1836 1832 1876 1954 2054 2096 2106 2167 2180 2210 2160 2037 2028 2275 2450 2422 2410 2420 2475 2464 2592 2622 2402 2118 2009 1770 1696 1866 2124 2248 2249 2218 2146 2022
6 5 4 4 3 2 2 2 2 2 3 3 2 3 4 2 2 2 2 2 2 2 2 3 2 3 20 173 284 374 433 456 482 528 574 612 666 820 878 877 915 1025 1146 1237 1288 1296 1323 1407 1545 1624 1697 1837 1875 1892 1920 2010 2100 2102 1991 1965 1872 1854 1975 2093 2185 2060 2142 2328 2506 2292 2644 2536 2381 2152 1925 1867 1712 1826 2009 2104 2080 2073 2081 2030 2012
5 6 4 5 4 3 4 3 2 2 4 3 2 3 4 3 3 3 3 2 2 2 2 4 4 4 139 161 204 278 350 415 529 589 578 574 629 744 842 927 948 984 1032 1115 1192 1276 1347 1372 1407 1466 1574 1564 1529 1604 1677 1721 1818 1872 1742 1653 1682 1684 1854 2034 2080 2078 2182 2266 2371 2484 2423 2391 2154 1920 1716 1689 1727 1851 1912 1936 1935 1899 1837 1919 1937
7 10 13 13 8 4 3 3 2 3 3 3 3 3 4 3 3 4 4 3 3 3 4 4 5 3 170 219 250 279 313 366 420 525 640 643 648 680 755 872 974 1017 1006 1012 1082 1172 1243 1244 1278 1339 1486 1565 1477 1519 1573 1597 1604 1493 1347 1326 1382 1501 1684 1773 1876 1955 1990 2139 2256 2210 2032 1982 1880 1681 1520 1544 1562 1587 1704 1680 1636 1655 1654 1647 1592
Wind_Speed
12 12 13 12 12 11 10 9 8 10 9 9 9 10 10 10 9 8 10 8 8 8 7 7 7 7 6 6 5 6 7 7 8 9 9 9 9 9 9 9 8 10 10 9 9 8 6 6 6 7 8 8 9 10 10 11 12 12 12 11 11 11 11 12 13 14 13 11 11 12 12 11 11 11 11 11 11 10 8 7 5 5 5 5 10
13 14 14 13 11 12 11 11 10 10 8 9 9 10 10 11 11 11 8 9 9 8 7 8 8 7 6 5 5 5 6 7 7 8 8 8 8 9 8 8 8 9 10 9 8 8 7 6 6 6 7 8 9 9 9 10 10 11 11 11 11 10 10 11 12 13 14 12 11 12 10 9 10 11 11 10 10 9 10 8 8 7 7 8 6
13 16 15 14 13 13 14 14 13 9 8 10 9 9 10 11 12 10 9 9 9 8 8 7 8 8 7 7 6 6 6 6 7 7 7 7 7 7 8 8 8 7 7 8 8 8 6 6 6 6 8 8 8 9 9 10 10 10 10 11 10 9 9 8 10 11 13 12 11 11 10 10 9 10 10 8 7 8 8 9 9 8 9 9 9
15 17 16 15 14 15 15 15 13 11 9 10 10 9 11 12 12 10 10 10 10 10 8 7 8 8 7 7 6 6 6 6 7 7 6 6 6 6 7 7 8 7 7 7 7 7 6 6 6 6 6 7 8 9 9 9 10 10 9 10 10 9 9 9 8 9 11 11 10 10 10 9 8 8 9 7 7 8 9 9 9 9 8 9 11
16 16 16 15 15 15 14 14 13 12 10 12 10 10 11 12 13 11 11 10 10 11 10 9 9 8 8 6 7 6 6 6 6 6 6 7 6 6 6 6 7 7 7 7 7 6 5 4 5 6 6 7 8 8 8 8 9 9 9 9 10 10 10 9 9 9 8 8 9 8 8 7 8 8 9 8 8 8 9 10 10 10 9 9 9
17 17 17 16 17 15 16 14 12 12 12 13 13 13 13 13 13 13 11 11 11 11 10 10 10 9 8 8 7 7 7 7 6 5 5 6 7 6 7 6 6 7 7 7 7 6 5 4 4 5 6 6 7 8 8 7 8 8 8 9 9 10 9 9 9 8 8 7 7 8 9 8 9 9 9 9 8 8 9 12 11 12 11 10 11
18 18 17 16 18 17 17 15 15 15 15 16 18 17 15 14 13 13 13 12 11 10 10 9 11 10 9 9 8 7 7 7 7 6 6 7 7 6 6 6 6 7 7 7 8 7 6 5 5 5 5 5 5 6 7 7 7 7 7 8 8 9 9 9 9 8 8 7 7 7 7 9 10 9 10 9 8 9 10 11 10 12 11 10 10
19 19 17 17 18 17 17 18 18 18 19 20 20 19 18 17 16 16 16 14 12 10 10 10 12 12 10 9 9 9 9 8 8 7 7 7 8 7 7 6 6 6 7 7 8 7 7 6 6 6 5 5 4 5 5 6 7 6 7 8 9 9 9 9 9 9 8 7 8 8 7 8 8 8 7 7 6 9 12 12 9 8 9 10 9
17 16 17 16 17 18 21 21 22 22 22 23 21 21 21 20 20 20 18 16 15 13 12 12 13 12 11 11 10 10 9 9 9 9 9 8 9 8 7 7 6 7 7 7 7 7 7 7 6 6 5 4 3 5 6 7 7 7 7 8 8 8 8 8 8 9 8 8 8 8 7 8 8 7 6 6 5 6 9 11 10 9 9 9 10
19 16 15 17 19 21 22 23 23 23 23 23 23 22 22 22 22 21 19 18 17 17 15 14 12 12 12 12 12 11 10 10 10 10 10 11 10 10 10 9 8 7 7 7 7 6 6 6 7 4 4 4 3 2 1 2 3 4 7 7 7 8 8 8 8 9 9 8 8 9 8 8 9 9 8 7 6 7 9 11 10 11 11 10 11
20 17 15 18 21 22 22 21 23 23 23 24 25 23 22 23 23 22 21 21 19 20 18 15 12 12 12 12 11 11 11 11 11 12 10 9 11 12 11 11 10 9 8 8 7 7 7 6 6 6 6 5 4 3 3 2 2 1 1 3 5 6 6 6 7 8 8 8 9 9 9 9 9 9 10 9 9 9 10 12 13 14 13 12 12
23 20 19 22 23 22 21 21 21 21 22 23 24 25 25 24 24 23 23 22 23 22 20 17 16 14 14 13 11 10 10 10 13 13 11 10 10 11 13 13 12 11 9 8 9 9 7 7 7 7 6 5 5 7 6 5 4 4 3 3 2 1 2 5 7 7 7 7 8 8 9 10 10 11 11 11 11 11 12 13 15 15 15 14 15
33 26 25 24 23 23 22 21 20 20 20 22 24 26 26 24 23 23 21 22 23 22 20 19 18 17 16 14 12 10 10 11 14 14 13 13 11 10 13 14 14 13 12 10 10 10 10 9 7 8 8 8 7 6 7 9 8 6 5 5 4 3 3 3 3 5 6 7 6 6 9 10 10 11 11 10 12 11 11 12 15 16 17 16 16
41 33 30 27 26 25 24 22 20 19 20 21 23 23 23 22 21 22 23 24 23 22 20 19 20 19 18 16 15 13 12 14 16 nan nan nan 15 14 13 13 15 14 13 13 13 11 10 10 10 9 9 9 9 8 8 8 10 11 11 10 8 7 7 5 5 5 5 5 5 6 8 11 10 11 11 12 12 11 11 11 12 14 16 16 15
52 47 36 31 30 27 26 23 21 21 20 20 20 20 20 21 21 22 23 22 22 22 21 20 19 19 17 17 16 15 14 14 19 18 17 nan nan nan 15 14 15 16 16 15 14 13 13 12 10 10 11 11 12 12 11 11 11 11 11 11 10 9 10 10 10 10 10 9 7 7 8 10 10 11 12 13 13 13 13 11 11 13 14 14 15
55 53 53 45 33 30 28 25 23 22 22 20 18 17 18 20 21 22 23 22 22 22 22 21 19 18 17 16 15 13 13 16 19 19 19 19 22 nan 20 16 14 16 18 17 17 17 15 14 13 12 12 12 13 16 15 14 13 12 12 12 12 12 11 11 12 12 10 10 10 9 9 10 12 12 13 14 15 15 16 16 15 16 17 17 17
56 56 53 52 51 42 29 27 25 24 22 20 18 17 17 19 20 22 21 20 20 21 21 20 20 18 17 16 14 13 14 18 21 20 21 22 26 23 21 20 18 15 16 19 20 19 18 16 15 16 14 14 15 20 18 18 15 14 14 14 14 14 13 16 18 15 13 10 8 8 8 8 9 10 11 14 17 17 17 16 16 19 20 19 18
55 57 56 55 51 49 45 32 27 27 24 21 18 17 17 19 19 21 19 19 18 18 19 19 19 18 16 15 15 14 14 18 22 21 23 26 26 23 22 21 18 17 17 17 19 19 18 16 16 17 16 16 18 22 23 24 18 16 16 16 15 13 14 18 20 20 17 14 12 11 10 10 11 11 13 15 21 24 22 20 19 20 19 20 19
55 55 57 55 53 51 47 43 31 27 26 22 20 18 17 18 19 19 18 17 16 18 18 17 17 17 15 14 15 13 13 16 23 23 24 27 26 23 22 19 17 17 18 18 18 18 19 20 18 17 18 18 19 25 28 27 21 20 19 19 16 13 16 22 21 18 20 19 16 15 14 14 15 17 18 20 26 27 24 22 20 21 22 22 21
54 54 55 55 55 52 50 47 41 32 28 26 24 21 21 19 18 17 16 16 16 16 16 16 14 15 15 14 14 13 12 15 23 25 26 27 27 23 21 19 15 16 18 18 19 19 18 19 22 19 16 18 21 25 30 29 24 22 22 20 18 16 21 24 22 21 19 18 17 17 15 16 18 20 21 23 27 28 25 24 22 22 23 22 23
57 55 56 57 57 55 52 50 49 40 31 29 27 25 23 21 19 18 17 17 16 15 13 13 13 13 14 14 13 12 14 15 20 28 26 28 27 24 21 18 17 18 19 19 18 17 18 19 18 22 22 20 21 24 30 31 28 25 23 21 20 21 25 25 25 26 22 20 19 18 17 18 17 17 20 23 25 27 25 24 23 23 23 23 22
60 57 58 58 58 56 55 52 50 48 41 33 30 27 26 24 23 21 21 20 16 14 13 13 12 12 13 12 12 12 14 16 16 26 26 26 26 25 19 18 19 20 18 17 16 15 16 18 19 24 26 23 22 24 28 32 31 30 24 22 21 23 25 26 25 25 24 23 23 21 21 20 19 18 19 21 22 23 23 24 25 24 25 23 23
63 62 58 56 57 58 57 55 53 51 50 44 36 32 30 28 26 25 22 20 17 15 13 13 12 11 11 12 12 12 13 16 16 20 25 25 24 22 19 16 21 21 18 15 14 14 17 18 19 24 28 25 23 24 27 31 34 30 24 24 25 25 28 28 27 26 25 24 22 22 22 23 22 21 21 21 21 22 22 23 26 27 26 25 24
65 65 61 57 56 58 59 58 55 53 52 52 51 43 35 32 30 27 24 21 19 16 15 14 12 10 8 8 9 10 12 12 17 16 21 23 22 21 18 15 18 20 18 14 15 16 17 18 21 25 26 25 24 25 28 32 31 28 26 26 26 29 33 30 30 30 28 27 24 22 22 24 25 24 23 24 23 24 24 24 25 28 29 28 27
66 67 64 60 58 59 61 61 59 56 55 56 53 50 45 38 33 30 27 23 21 19 17 18 16 13 12 11 10 10 10 12 13 16 17 20 20 19 18 17 14 16 16 15 16 17 18 19 22 24 24 23 24 26 28 29 28 26 28 28 29 32 32 31 31 32 31 29 27 27 26 29 30 29 28 28 27 26 27 28 29 29 30 30 26
68 68 66 64 62 61 61 64 63 59 57 56 55 52 47 43 39 35 31 26 23 21 21 20 19 18 16 15 14 15 14 15 14 16 19 17 18 18 18 16 15 14 13 12 14 15 18 22 22 22 23 23 26 28 28 29 27 26 27 29 30 30 31 31 32 32 31 31 32 32 32 33 34 34 34 34 32 31 30 29 30 31 33 30 28
nan 68 67 65 65 64 63 63 66 64 60 59 57 52 45 42 40 36 34 30 28 27 25 24 22 21 19 18 19 19 19 16 16 16 20 22 21 21 19 16 13 13 14 14 14 18 20 22 25 25 24 25 24 23 23 24 27 27 27 27 26 26 27 28 28 29 29 30 30 32 33 34 34 36 38 38 36 36 36 33 31 31 32 31 29
nan nan 68 66 65 67 68 67 66 nan 64 63 62 57 50 47 44 38 33 32 31 30 28 26 24 23 22 23 23 23 21 20 20 20 21 23 24 25 25 24 23 24 20 19 21 20 20 23 23 25 26 26 26 24 24 25 25 27 27 26 25 23 23 23 23 22 23 25 27 29 31 33 33 34 34 35 36 37 38 35 34 32 33 31 30
nan nan nan nan 65 65 68 70 67 65 nan 62 61 57 52 47 43 39 39 43 41 37 34 31 28 27 27 27 27 27 25 24 23 26 25 25 25 26 27 26 27 27 23 24 28 27 25 23 23 24 24 23 22 22 23 25 25 25 25 26 26 26 25 25 23 21 21 22 23 23 27 31 31 31 32 33 32 30 33 35 36 33 33 32 28
nan nan nan nan nan 67 66 67 67 65 63 62 62 59 53 45 39 38 40 42 43 42 43 38 33 33 31 27 26 27 27 28 31 32 29 27 27 26 26 28 27 27 27 33 32 29 26 23 22 23 23 23 21 21 22 24 25 25 24 26 26 25 25 25 24 23 25 24 25 26 27 29 30 31 28 27 29 30 34 35 34 35 34 33 29
nan nan nan nan nan 68 68 66 66 64 64 65 nan nan 57 53 43 34 34 39 41 39 37 33 32 32 33 31 29 26 26 33 36 36 33 30 30 29 28 27 29 27 38 48 37 30 26 25 23 23 23 22 22 22 23 24 25 25 24 26 27 26 25 24 24 26 26 26 26 26 27 29 29 30 27 25 26 29 31 37 34 35 33 32 31
nan nan nan nan nan nan nan nan nan 64 64 nan nan nan nan 57 54 49 44 43 44 42 39 36 34 33 29 29 32 31 31 30 31 35 35 34 32 31 30 29 30 34 41 45 39 33 30 28 27 26 25 23 23 24 24 25 26 26 26 26 26 27 28 27 28 29 28 27 27 28 29 29 29 29 27 25 26 28 31 35 35 35 34 33 32
nan nan nan nan nan nan nan nan nan nan nan nan nan nan nan nan 56 nan 55 51 48 47 45 41 39 36 35 34 32 31 31 40 34 32 34 35 36 35 34 33 33 39 49 43 34 33 33 33 31 31 29 26 25 25 26 26 26 27 27 28 27 28 29 30 33 31 29 28 29 30 30 29 29 29 31 28 27 27 30 33 35 36 36 35 34
nan nan nan nan nan nan nan nan nan nan nan nan nan nan nan nan nan nan nan 58 58 55 51 47 44 42 41 39 39 36 34 33 37 36 33 35 38 38 40 45 51 48 44 40 37 33 34 34 34 33 33 32 30 29 28 28 28 28 29 29 29 29 30 33 34 33 32 31 32 30 28 25 26 26 24 25 27 28 30 34 36 37 38 37 36
nan nan nan nan nan nan nan nan nan nan nan nan nan nan nan nan nan nan nan nan 54 54 55 56 55 53 48 46 42 38 37 37 37 39 39 38 43 52 56 53 50 47 42 38 38 38 37 37 36 36 37 37 37 35 31 30 31 32 31 30 30 31 32 33 33 34 34 32 30 28 27 27 26 26 25 26 26 29 31 33 35 38 39 39 39
nan nan nan nan nan nan nan nan nan nan nan nan nan nan nan nan nan nan nan nan 50 50 51 53 56 57 50 45 43 43 44 46 45 42 40 47 53 57 50 46 46 45 43 42 40 40 39 38 38 37 39 39 41 40 38 35 34 33 32 31 31 31 32 33 34 35 35 34 31 29 29 29 29 28 27 26 26 28 31 33 35 38 39 38 37
nan nan nan nan nan nan nan nan nan nan nan nan nan nan nan nan nan nan nan nan nan 50 50 53 56 55 53 52 50 47 48 51 50 46 44 48 52 51 45 46 45 45 45 44 45 43 42 41 40 40 40 41 42 43 43 41 40 39 38 36 33 33 34 35 37 39 39 37 34 31 29 29 30 30 29 28 28 28 30 34 37 41 41 38 41
nan nan nan nan nan nan nan nan nan nan nan nan nan nan nan nan nan nan nan nan nan nan 53 52 50 48 48 50 59 61 62 61 63 60 57 58 56 49 46 44 45 45 45 46 48 47 45 44 44 42 43 44 44 44 44 44 46 45 44 43 40 36 35 36 38 39 39 38 36 34 30 28 30 32 33 31 29 30 32 35 39 43 41 40 44
nan nan nan nan nan nan nan nan nan nan nan nan nan nan nan nan nan nan nan nan nan nan nan 51 45 41 40 46 51 60 63 60 58 56 57 56 54 51 49 47 45 44 43 44 49 50 47 45 44 45 45 46 45 45 46 47 49 49 49 48 44 40 38 37 38 38 36 35 33 32 30 29 29 32 35 34 32 31 33 37 41 44 43 44 45
nan nan nan nan nan nan nan nan nan nan nan nan nan nan nan nan nan nan nan nan nan nan nan nan nan 41 41 43 46 51 52 52 51 52 54 58 55 54 52 50 48 46 46 46 45 49 49 46 47 48 48 47 46 46 48 49 50 51 53 51 48 45 43 42 41 40 38 36 35 34 33 30 31 33 36 36 35 36 37 42 45 45 42 42 43
nan nan nan nan nan nan nan nan nan nan nan nan nan nan nan nan nan nan nan nan nan nan nan nan nan nan 44 46 49 50 50 51 51 52 53 54 56 56 55 53 51 49 47 48 49 48 49 49 50 50 49 48 47 48 48 48 48 49 50 52 51 48 46 45 45 43 40 37 36 35 35 35 34 35 35 36 41 41 44 47 45 44 43 42 44
nan nan nan nan nan nan nan nan nan nan nan nan nan nan nan nan nan nan nan nan nan nan nan nan nan nan nan 46 45 44 48 48 48 49 50 51 51 53 55 55 53 51 49 50 51 49 48 49 50 50 50 50 49 49 49 49 50 49 50 50 50 50 46 45 46 46 42 39 38 38 36 37 38 37 37 42 44 45 46 47 46 46 45 44 47
nan nan nan nan nan nan nan nan nan nan nan nan nan nan nan nan nan nan nan nan nan nan nan nan nan nan nan nan nan 44 49 48 46 46 47 48 49 50 50 51 51 51 51 51 50 48 48 48 48 49 50 50 50 50 51 52 52 52 52 56 60 59 51 46 46 47 46 42 40 40 40 40 43 42 39 42 43 47 50 51 49 48 46 46 50
nan nan nan nan nan nan nan nan nan nan nan nan nan nan nan nan nan nan nan nan nan nan nan nan nan nan nan nan nan nan 49 48 47 46 45 46 45 45 47 49 50 49 49 50 51 50 47 45 45 49 51 50 49 49 50 52 53 55 62 69 68 63 55 46 46 50 51 47 44 43 45 44 43 41 42 44 47 50 53 52 50 49 49 49 50
nan nan nan nan nan nan nan nan nan nan nan nan nan nan nan nan nan nan nan nan nan nan nan nan nan nan nan nan nan nan nan 51 48 48 48 45 42 42 43 44 45 48 50 52 53 52 49 47 48 50 51 50 50 50 51 52 57 64 65 61 59 58 55 49 47 50 53 48 47 47 47 46 46 44 43 44 48 52 55 53 51 50 50 51 51
nan nan nan nan nan nan nan nan nan nan nan nan nan nan nan nan nan nan nan nan nan nan nan nan nan nan nan nan 46 48 nan 57 58 59 59 59 58 55 54 53 54 57 59 59 58 57 57 57 54 51 49 48 49 50 52 54 58 55 54 54 53 51 49 48 47 49 51 51 49 49 49 49 48 47 47 46 50 53 55 54 52 52 54 55 53
nan nan nan nan nan nan nan nan nan nan nan nan nan nan nan nan nan nan nan nan nan nan nan nan nan nan nan 48 46 47 50 54 56 58 59 58 56 55 54 53 54 55 57 58 57 56 55 55 55 54 54 54 54 54 57 59 57 55 53 54 52 49 45 45 47 51 52 54 55 53 54 52 49 49 52 52 52 54 55 54 55 56 54 51 49
nan nan nan nan nan nan nan nan nan nan nan nan nan nan nan nan nan nan nan nan nan nan nan nan nan nan nan 52 49 48 49 51 55 57 58 58 56 55 55 56 56 56 57 58 58 56 56 55 56 57 58 57 56 58 59 59 60 59 57 55 52 49 48 48 49 51 54 58 59 59 59 54 51 50 52 54 55 55 56 57 60 59 53 48 48
nan nan nan nan nan nan nan nan nan nan nan nan nan nan nan nan nan nan nan nan nan nan nan nan nan nan nan 55 54 53 52 52 54 57 59 60 60 59 59 60 61 58 57 56 56 55 55 56 58 58 59 60 60 60 60 60 60 60 57 54 52 51 53 53 54 55 58 59 58 58 58 57 55 56 59 60 60 59 59 60 61 60 58 57 54
nan nan nan nan nan nan nan nan nan nan nan nan nan nan nan nan nan nan nan nan nan nan nan nan nan nan 58 57 57 57 57 56 56 57 59 63 65 66 65 65 64 62 59 56 54 52 53 56 59 62 62 63 63 62 61 61 59 58 57 57 57 57 58 58 58 59 60 59 60 62 65 66 66 63 62 62 63 65 66 67 64 58 55 55 53
nan nan nan nan nan nan nan nan nan nan nan nan nan nan nan nan nan nan nan nan nan nan nan nan nan nan 64 62 61 61 61 60 60 59 60 63 67 70 71 70 69 66 63 60 57 56 55 56 58 62 64 65 64 63 63 62 62 60 60 62 61 59 59 59 60 60 63 66 68 70 73 74 73 72 70 70 70 70 70 71 70 66 61 58 59
Wind_Direction
247 242 237 230 233 239 231 218 202 193 187 193 193 189 187 188 190 185 204 199 205 210 214 214 216 215 203 203 199 214 228 232 227 222 215 208 202 199 199 209 200 196 197 196 202 209 200 187 189 195 199 194 195 195 196 205 211 209 211 209 204 208 204 204 197 194 205 219 207 205 213 215 221 234 228 229 231 233 235 243 253 261 291 309 310
240 242 240 234 237 236 235 229 218 204 193 195 195 195 193 197 198 204 202 204 211 208 214 214 216 217 210 204 204 211 228 238 238 232 225 218 210 210 208 213 211 204 204 200 206 211 212 201 197 204 214 199 202 204 204 204 205 203 213 211 210 212 215 205 202 199 197 211 210 213 216 233 220 241 239 234 235 243 243 250 265 275 289 305 299
234 237 239 239 241 236 236 234 234 224 205 197 195 193 198 200 205 203 195 202 212 211 216 214 219 222 216 211 212 209 224 232 234 237 232 228 220 209 212 220 220 215 216 211 208 214 213 209 196 202 217 213 210 205 214 213 208 204 203 210 213 213 230 224 210 201 198 204 211 210 222 227 225 229 236 248 253 260 256 254 260 267 284 293 289
224 231 233 234 238 238 236 235 240 237 225 209 203 198 200 204 208 204 202 202 213 217 217 221 226 226 222 219 216 213 221 225 230 235 236 232 223 218 219 224 223 220 216 220 224 227 217 208 197 199 210 214 211 212 215 215 220 219 212 215 218 218 228 239 233 217 211 206 217 217 223 227 235 244 249 259 261 258 263 266 275 274 275 287 295
216 224 230 231 234 233 236 236 236 237 235 226 222 217 211 209 210 208 206 201 208 220 219 222 226 231 226 225 225 224 223 230 231 226 228 227 224 219 221 227 229 229 224 223 232 236 225 201 193 206 213 202 205 209 213 220 220 219 218 223 225 226 233 239 241 243 233 221 221 237 241 249 260 265 267 263 270 281 287 289 282 286 288 291 304
216 220 223 226 227 232 234 236 237 240 237 233 234 233 227 220 217 216 211 207 211 213 220 220 225 233 233 234 237 236 235 237 240 230 224 225 223 217 217 221 222 226 226 227 227 228 216 203 192 201 207 202 195 198 206 214 221 222 224 229 232 235 238 243 249 249 247 242 239 236 253 250 259 271 280 280 278 281 292 302 308 306 307 306 308
222 222 222 223 224 228 233 234 234 236 236 233 233 234 235 232 228 223 222 215 213 210 212 217 222 229 236 239 243 249 250 248 244 241 226 220 222 219 211 213 215 217 216 219 222 222 213 202 198 198 197 198 190 190 201 209 218 220 231 233 239 243 243 245 253 254 253 248 250 255 253 264 270 267 285 288 293 306 300 297 308 316 319 322 326
228 226 224 220 221 226 228 231 231 232 233 234 234 234 236 237 235 232 230 227 220 215 213 217 221 226 230 235 241 248 256 258 257 250 237 228 224 221 218 210 208 211 211 215 217 219 220 209 196 195 193 195 192 195 200 204 217 216 223 233 240 243 238 240 246 251 250 248 249 246 254 256 264 278 289 299 296 303 305 300 312 323 329 337 341
231 234 232 227 222 225 226 226 227 230 233 236 238 237 237 238 239 239 238 234 228 224 221 217 222 227 230 233 239 245 252 258 258 258 252 245 231 224 226 222 216 211 211 209 214 216 218 218 209 199 203 205 201 201 201 218 216 214 223 238 244 245 245 244 248 251 253 249 249 260 265 271 277 280 284 290 293 275 286 302 312 324 329 333 334
231 229 233 231 227 228 228 226 227 230 233 235 238 240 238 239 241 243 242 241 238 236 234 230 226 231 237 240 240 238 241 245 263 289 272 250 247 234 231 229 225 220 218 215 212 215 214 214 218 231 245 262 265 259 205 208 225 210 223 239 250 253 256 255 255 259 258 256 259 264 269 273 279 291 290 286 280 287 290 298 301 301 310 317 321
231 231 228 230 233 233 231 230 230 232 232 233 235 239 241 240 241 242 243 244 245 246 246 245 239 233 238 243 246 240 236 241 274 285 290 279 250 242 240 237 238 236 229 226 219 217 219 225 222 249 273 274 278 312 305 333 328 326 209 213 238 256 259 265 264 264 265 265 267 275 281 278 284 288 295 292 289 285 284 287 292 295 299 297 298
215 221 222 227 233 237 234 233 234 233 234 235 237 239 241 242 243 246 247 248 247 247 248 250 247 246 243 247 250 246 239 247 271 281 288 290 271 243 238 236 237 239 236 231 228 226 225 229 237 238 247 255 253 273 301 327 330 328 336 328 308 287 263 263 261 263 273 273 277 285 282 291 291 294 299 301 300 297 297 296 298 299 300 301 300
208 215 219 223 229 234 234 234 235 235 237 239 240 241 243 244 246 248 250 250 249 250 250 251 253 255 253 254 255 254 244 259 274 281 283 286 286 262 234 234 235 235 237 239 237 235 234 234 233 240 240 275 268 257 256 273 306 332 319 306 302 321 326 337 301 279 266 276 291 294 303 300 303 306 310 314 309 310 304 308 307 307 307 307 305
211 211 220 225 228 229 231 231 231 233 235 239 241 244 247 248 249 248 249 252 254 256 258 255 252 254 255 255 253 251 251 261 282 nan nan nan 283 269 241 235 232 229 232 236 237 240 242 240 239 240 244 254 261 264 259 255 257 268 272 271 271 292 316 330 330 333 314 306 305 309 310 313 319 315 319 323 325 322 316 315 308 308 311 315 313
215 212 215 224 227 228 228 229 230 232 235 239 241 244 247 246 249 248 250 254 256 257 257 257 255 256 257 256 252 250 251 267 277 285 283 nan nan nan 250 242 232 229 230 233 237 240 243 242 239 238 243 253 257 266 262 259 258 256 258 262 268 266 275 286 293 294 301 315 329 331 320 318 323 325 324 325 329 324 321 320 312 311 315 318 324
217 215 214 215 221 227 226 227 230 232 236 238 241 243 244 246 249 248 246 247 248 250 253 255 257 258 257 255 251 248 247 268 276 281 284 280 278 nan 256 253 245 235 232 233 235 238 241 242 241 239 240 246 263 280 272 260 257 258 259 257 256 260 267 279 285 289 294 298 311 319 314 316 311 315 310 309 310 311 312 315 316 320 325 329 330
218 217 216 215 214 215 221 226 227 231 235 239 242 245 246 246 247 247 248 248 248 251 254 259 258 260 264 264 264 252 244 262 275 279 280 281 270 261 261 258 254 250 242 239 238 238 240 243 245 241 242 246 259 276 278 271 259 258 258 258 257 258 261 268 291 307 310 313 318 319 318 315 315 318 318 314 309 303 308 315 322 320 325 328 327
220 217 217 216 215 213 212 216 226 231 232 234 238 240 244 244 247 250 251 251 251 252 254 257 261 264 270 271 270 262 252 259 275 278 280 282 279 268 264 263 262 261 256 253 247 242 242 250 248 246 245 246 258 271 274 272 263 262 260 260 262 265 268 268 268 283 312 318 322 327 326 322 317 318 319 318 315 308 317 324 323 322 329 329 327
222 219 217 216 216 216 214 211 217 228 230 229 229 232 240 245 248 250 251 251 248 247 250 252 256 259 264 268 270 269 254 258 277 282 285 286 284 270 271 270 272 270 267 265 263 255 249 254 263 255 247 247 257 267 273 272 264 263 264 262 265 271 272 270 273 277 281 286 289 291 290 304 306 304 309 325 320 319 323 329 328 328 329 328 327
222 221 221 220 219 218 217 212 213 221 228 230 227 227 231 238 244 248 249 248 246 247 248 249 253 253 255 260 261 267 261 256 270 287 289 291 297 282 278 282 284 281 275 270 267 266 264 257 264 275 266 256 256 266 274 279 270 264 264 265 266 271 267 270 276 278 279 282 278 281 283 284 291 296 300 303 308 317 322 326 328 324 324 324 326
223 222 221 222 220 219 219 217 212 214 223 227 228 228 229 230 233 237 241 242 244 245 248 247 247 247 249 251 253 258 258 263 269 287 291 296 302 299 283 294 292 282 277 275 274 273 271 270 262 275 280 271 266 269 275 280 280 271 271 270 272 266 264 266 273 283 281 281 279 278 278 280 284 288 293 297 303 309 315 323 324 323 324 325 327
224 222 221 221 221 221 221 220 219 216 217 226 228 230 229 229 229 232 234 237 241 242 244 245 242 239 241 245 247 250 259 273 263 281 294 298 301 313 293 291 290 281 278 275 277 275 275 270 268 274 284 284 280 276 279 280 285 274 277 280 276 273 271 270 268 271 275 278 279 280 281 282 283 287 293 299 304 309 316 319 321 322 323 326 327
224 223 221 221 222 223 223 222 223 223 219 219 224 224 225 228 229 230 231 231 233 235 239 241 241 237 236 238 240 246 251 259 284 273 288 297 301 308 317 294 290 284 282 284 284 276 269 268 266 275 282 286 286 285 283 286 281 279 288 284 281 282 276 272 272 274 275 275 277 280 284 284 285 287 291 296 300 306 313 316 315 316 318 320 324
225 225 223 220 221 223 224 224 224 224 223 221 217 216 218 221 225 228 230 229 229 228 227 231 233 231 231 231 236 240 248 251 272 291 282 298 298 306 309 310 293 284 289 286 280 274 269 268 264 273 280 284 287 286 285 287 284 295 295 291 287 280 275 278 278 278 277 276 277 278 280 282 284 285 287 289 293 298 306 308 309 311 310 312 316
226 227 224 219 217 219 222 224 225 225 226 227 222 215 212 216 219 224 226 228 227 226 226 232 236 237 241 245 243 243 244 252 252 280 302 294 303 306 308 312 308 301 289 283 277 274 271 273 271 275 280 283 287 286 283 291 302 300 298 296 291 281 285 284 282 280 281 281 280 278 277 279 281 282 281 284 289 292 295 297 298 300 303 305 308
227 227 225 221 218 216 218 222 226 226 225 232 232 225 215 214 218 218 224 227 228 226 228 233 235 236 238 242 246 248 248 244 248 256 273 288 290 302 310 312 316 314 307 284 287 282 274 274 280 280 279 279 274 273 277 285 300 306 303 298 290 292 290 289 287 287 286 285 284 284 281 277 277 278 280 283 285 289 290 293 296 298 300 304 307
nan 227 225 222 219 218 217 223 226 228 226 228 232 233 224 215 216 218 221 225 229 230 230 233 234 235 236 238 242 245 249 249 251 255 261 266 268 271 275 275 294 295 278 266 263 259 262 264 266 273 273 284 290 289 291 292 292 292 291 295 298 299 298 296 295 293 292 290 287 285 282 279 276 276 278 280 283 286 289 291 292 294 297 302 305
nan nan 223 222 222 220 219 219 223 nan 229 227 225 225 225 219 214 216 221 226 228 230 230 230 232 235 236 238 240 244 250 254 260 261 261 261 265 268 271 272 272 272 273 271 268 267 264 267 272 269 272 274 279 279 284 286 291 292 293 296 299 300 304 305 302 297 295 291 285 282 281 281 282 281 279 280 281 283 285 287 289 291 294 298 302
nan nan nan nan 223 222 221 222 225 228 nan 230 226 223 223 222 217 212 214 222 226 229 229 228 231 232 234 236 242 246 249 253 258 262 263 267 268 269 272 274 273 273 281 283 270 263 264 269 274 280 282 284 284 285 287 288 291 295 298 297 295 296 296 296 301 304 302 294 291 290 286 282 282 281 279 279 279 279 281 283 286 289 291 297 300
nan nan nan nan nan 223 221 223 225 227 229 231 226 221 221 223 221 215 217 221 218 216 223 227 226 231 233 235 239 245 250 249 251 264 269 269 270 273 273 277 282 279 282 286 275 270 274 278 284 287 288 290 291 290 290 290 292 295 297 299 297 297 298 297 297 295 292 293 291 289 286 284 282 281 277 277 276 277 279 282 284 286 290 294 296
nan nan nan nan nan 226 225 224 223 226 228 229 nan nan 221 222 222 220 222 224 224 224 223 222 220 223 232 232 236 245 241 239 247 259 265 267 268 269 271 273 277 282 273 268 273 278 278 283 286 289 291 293 294 295 292 292 293 294 295 295 299 303 303 300 296 290 288 290 291 290 287 286 285 283 280 279 276 276 277 280 282 283 288 290 292
nan nan nan nan nan nan nan nan nan 225 227 nan nan nan nan 222 219 218 221 222 225 229 230 228 230 236 236 237 235 233 243 249 250 255 260 262 265 265 266 269 271 274 277 282 277 281 283 282 281 283 286 290 294 292 293 294 293 295 295 296 300 302 305 304 298 292 290 292 291 289 289 290 287 286 285 281 279 278 277 278 281 283 285 286 289
nan nan nan nan nan nan nan nan nan nan nan nan nan nan nan nan 220 nan 219 225 225 225 224 229 235 236 239 237 237 238 235 241 253 256 258 260 262 263 264 266 268 269 267 269 275 277 279 282 282 282 284 286 286 287 288 292 292 293 295 298 300 301 303 303 300 298 297 296 293 291 292 291 290 288 287 285 283 281 279 278 280 281 282 285 288
nan nan nan nan nan nan nan nan nan nan nan nan nan nan nan nan nan nan nan 220 220 223 229 235 237 238 239 241 239 235 235 238 241 248 253 256 259 260 260 254 252 261 271 270 271 272 275 278 282 284 284 284 283 283 284 285 287 288 290 292 295 295 297 296 298 301 300 298 296 294 293 293 291 290 289 288 286 281 279 278 279 280 281 283 286
nan nan nan nan nan nan nan nan nan nan nan nan nan nan nan nan nan nan nan nan 223 223 222 225 234 245 241 242 244 240 236 241 248 248 247 248 251 257 259 255 255 255 256 258 264 267 269 272 275 280 283 285 285 285 284 284 283 285 287 287 289 291 291 294 297 299 299 298 298 300 299 296 293 292 291 289 287 283 280 279 281 281 281 282 284
nan nan nan nan nan nan nan nan nan nan nan nan nan nan nan nan nan nan nan nan 222 221 221 225 228 228 233 241 240 236 232 239 246 250 250 253 259 265 260 261 262 263 264 265 267 268 269 270 271 274 277 281 284 286 287 286 286 286 286 288 289 290 292 294 295 296 297 298 300 300 297 296 295 293 292 289 289 286 285 285 282 280 280 283 287
nan nan nan nan nan nan nan nan nan nan nan nan nan nan nan nan nan nan nan nan nan 221 222 223 225 226 229 237 243 238 235 241 250 254 257 260 266 265 262 265 266 266 267 267 269 269 269 269 270 271 274 277 280 283 285 288 288 288 288 288 288 290 292 293 293 294 296 299 300 300 298 296 293 293 293 293 290 289 287 282 281 278 278 283 287
nan nan nan nan nan nan nan nan nan nan nan nan nan nan nan nan nan nan nan nan nan nan 219 222 227 227 228 229 240 240 240 243 247 247 248 251 256 258 260 260 263 266 268 269 271 272 273 273 274 275 275 275 276 278 281 283 285 287 288 288 288 288 291 289 293 293 295 296 299 299 298 295 291 290 290 292 292 290 288 284 282 279 278 284 290
nan nan nan nan nan nan nan nan nan nan nan nan nan nan nan nan nan nan nan nan nan nan nan 219 221 225 229 233 232 239 241 242 246 248 250 252 255 258 260 262 264 267 270 272 273 275 277 278 279 278 277 276 277 278 279 280 282 284 286 287 287 286 287 287 289 291 295 297 299 300 299 295 290 288 289 290 291 291 288 285 285 281 279 283 296
nan nan nan nan nan nan nan nan nan nan nan nan nan nan nan nan nan nan nan nan nan nan nan nan nan 219 226 232 235 237 238 241 245 248 250 253 255 258 259 260 263 265 267 270 272 274 278 279 280 280 280 280 280 280 279 280 281 282 284 286 286 287 286 283 282 285 289 292 296 298 300 298 292 286 286 288 288 286 285 282 284 284 285 290 300
nan nan nan nan nan nan nan nan nan nan nan nan nan nan nan nan nan nan nan nan nan nan nan nan nan nan 226 231 238 241 239 241 243 246 248 251 255 258 259 260 261 262 265 267 269 271 274 277 278 280 280 281 281 280 280 280 281 281 283 284 284 285 284 282 281 280 282 287 293 298 299 298 294 289 286 287 284 284 283 283 289 290 287 289 297
nan nan nan nan nan nan nan nan nan nan nan nan nan nan nan nan nan nan nan nan nan nan nan nan nan nan nan 226 230 241 244 242 245 246 248 248 249 253 257 260 261 263 264 266 268 270 271 273 275 277 279 280 280 280 281 282 282 281 281 281 281 280 281 280 279 280 282 287 293 296 297 295 294 291 286 280 282 285 285 285 287 290 289 288 290
nan nan nan nan nan nan nan nan nan nan nan nan nan nan nan nan nan nan nan nan nan nan nan nan nan nan nan nan nan 239 244 244 243 244 246 250 253 254 255 257 260 263 267 268 269 271 272 273 274 275 277 279 281 281 283 284 283 281 281 278 274 272 274 275 277 280 283 286 290 291 291 291 289 288 287 283 284 283 285 284 285 288 290 289 289
nan nan nan nan nan nan nan nan nan nan nan nan nan nan nan nan nan nan nan nan nan nan nan nan nan nan nan nan nan nan 245 246 244 245 247 249 251 254 255 257 259 261 265 269 272 273 273 273 274 274 276 278 280 282 281 281 280 278 274 271 273 280 282 281 279 278 278 279 280 283 285 287 286 288 288 288 287 287 285 285 287 287 289 293 293
nan nan nan nan nan nan nan nan nan nan nan nan nan nan nan nan nan nan nan nan nan nan nan nan nan nan nan nan nan nan nan 242 247 249 250 250 251 252 252 254 257 260 262 265 267 269 271 273 274 274 275 276 277 278 277 277 276 277 281 287 290 290 288 284 276 272 273 275 276 278 282 284 285 286 287 288 288 285 283 285 287 285 286 287 287
nan nan nan nan nan nan nan nan nan nan nan nan nan nan nan nan nan nan nan nan nan nan nan nan nan nan nan nan 238 241 nan 243 243 242 243 244 246 247 248 248 249 251 252 252 252 254 258 262 266 270 272 273 273 273 274 275 277 280 285 288 289 288 284 280 276 272 272 273 275 277 280 282 283 284 285 285 282 281 280 282 284 284 285 285 282
nan nan nan nan nan nan nan nan nan nan nan nan nan nan nan nan nan nan nan nan nan nan nan nan nan nan nan 235 241 245 248 248 246 244 243 243 244 246 246 247 249 251 252 252 252 252 253 257 261 264 266 267 268 268 269 274 278 281 281 283 286 288 285 281 280 277 274 274 275 277 277 278 280 281 282 281 278 277 276 277 281 284 283 281 276
nan nan nan nan nan nan nan nan nan nan nan nan nan nan nan nan nan nan nan nan nan nan nan nan nan nan nan 238 241 245 248 250 250 247 244 243 242 243 243 244 246 248 251 252 252 254 255 256 258 261 263 266 268 270 271 273 273 275 276 277 282 286 286 284 281 278 274 273 274 274 273 277 277 280 280 279 278 276 276 278 280 278 277 276 274
nan nan nan nan nan nan nan nan nan nan nan nan nan nan nan nan nan nan nan nan nan nan nan nan nan nan nan 241 243 244 245 248 251 251 247 243 241 240 241 242 244 246 249 251 253 254 255 256 257 260 262 264 266 268 270 272 274 277 279 279 281 285 286 286 280 278 277 277 277 277 274 273 274 275 275 276 277 277 277 278 278 275 270 271 273
nan nan nan nan nan nan nan nan nan nan nan nan nan nan nan nan nan nan nan nan nan nan nan nan nan nan 241 244 246 246 245 247 249 251 250 246 242 240 241 242 244 246 248 251 255 257 260 260 259 259 260 263 264 265 266 268 269 271 273 275 279 284 287 290 289 288 284 280 279 276 273 272 270 271 273 275 276 275 273 272 271 269 267 269 270
nan nan nan nan nan nan nan nan nan nan nan nan nan nan nan nan nan nan nan nan nan nan nan nan nan nan 245 247 248 249 250 250 250 251 252 250 245 242 242 244 246 248 250 253 256 258 261 262 261 259 260 261 263 264 265 264 266 267 269 272 275 276 278 280 281 282 282 278 277 277 275 273 271 269 268 269 270 270 271 270 267 262 258 263 269